VOZ172 YBCS-YBSU

Flight info

Callsign VOZ172
Flight time N/A
Altitude 37000
Route AKROM Y177 RUROX/N0359F190 W727 SUSGI W534 SEBVA
Aircraft B738/M-SDE2E3FGHIRWXY/LB1

Departure

Time 2026-04-27 11:04
Airport Cairns International Airport (YBCS)

Arrival

Time N/A
Airport Sunshine Coast Airport (YBSU)
Time Latitude Longitude Altitude Speed Heading
2026-04-27 10:06 -16.87722 145.75267 16 ft 0 kts 66°
2026-04-27 10:42 -16.87728 145.75253 15 ft 2 kts 65°
2026-04-27 10:42 -16.87734 145.75240 15 ft 2 kts 66°
2026-04-27 10:42 -16.87740 145.75226 15 ft 2 kts 65°
2026-04-27 10:42 -16.87746 145.75211 15 ft 2 kts 66°
2026-04-27 10:43 -16.87752 145.75197 15 ft 2 kts 65°
2026-04-27 10:43 -16.87756 145.75188 15 ft 2 kts 66°
2026-04-27 10:43 -16.87765 145.75180 15 ft 2 kts
2026-04-27 10:43 -16.87773 145.75182 15 ft 0 kts 334°
2026-04-27 10:44 -16.87778 145.75185 15 ft 0 kts 335°
2026-04-27 10:47 -16.87777 145.75183 15 ft 0 kts 335°
2026-04-27 10:47 -16.87769 145.75180 15 ft 2 kts 335°
2026-04-27 10:47 -16.87743 145.75168 15 ft 5 kts 338°
2026-04-27 10:48 -16.87703 145.75151 15 ft 7 kts 335°
2026-04-27 10:48 -16.87660 145.75113 15 ft 9 kts 291°
2026-04-27 10:48 -16.87652 145.75046 15 ft 8 kts 300°
2026-04-27 10:48 -16.87606 145.75014 15 ft 7 kts 337°
2026-04-27 10:49 -16.87557 145.74992 15 ft 8 kts 337°
2026-04-27 10:49 -16.87501 145.74966 15 ft 9 kts 334°
2026-04-27 10:49 -16.87438 145.74937 15 ft 10 kts 336°
2026-04-27 10:49 -16.87360 145.74902 15 ft 13 kts 336°
2026-04-27 10:50 -16.87264 145.74864 16 ft 15 kts 338°
2026-04-27 10:50 -16.87179 145.74823 18 ft 11 kts 337°
2026-04-27 10:50 -16.87113 145.74794 18 ft 8 kts 337°
2026-04-27 10:50 -16.87074 145.74773 19 ft 5 kts 314°
2026-04-27 10:51 -16.87055 145.74753 19 ft 2 kts 316°
2026-04-27 10:51 -16.87051 145.74747 19 ft 0 kts 288°
2026-04-27 11:02 -16.87051 145.74745 19 ft 0 kts 281°
2026-04-27 11:02 -16.87050 145.74744 19 ft 0 kts 276°
2026-04-27 11:03 -16.87052 145.74725 18 ft 5 kts 263°
2026-04-27 11:03 -16.87079 145.74663 18 ft 14 kts 216°
2026-04-27 11:03 -16.87190 145.74634 18 ft 25 kts 155°
2026-04-27 11:03 -16.87627 145.74829 15 ft 110 kts 156°
2026-04-27 11:04 -16.88529 145.75249 127 ft 167 kts 155°
2026-04-27 11:04 -16.89574 145.75839 678 ft 185 kts 145°
2026-04-27 11:04 -16.90398 145.76773 1424 ft 194 kts 116°
2026-04-27 11:04 -16.90678 145.78113 2343 ft 199 kts 85°
2026-04-27 11:05 -16.90283 145.79440 3387 ft 199 kts 57°
2026-04-27 11:05 -16.89342 145.80409 4319 ft 203 kts 29°
2026-04-27 11:05 -16.88127 145.81084 5273 ft 205 kts 31°
2026-04-27 11:05 -16.86951 145.81883 5903 ft 206 kts 34°
2026-04-27 11:06 -16.85768 145.82770 6249 ft 217 kts 38°
2026-04-27 11:06 -16.84716 145.84018 6411 ft 259 kts 60°
2026-04-27 11:06 -16.84150 145.85883 7128 ft 276 kts 85°
2026-04-27 11:06 -16.84283 145.87775 8165 ft 279 kts 104°
2026-04-27 11:07 -16.85071 145.89604 9144 ft 284 kts 123°
2026-04-27 11:07 -16.86181 145.91193 10069 ft 288 kts 134°
2026-04-27 11:07 -16.87728 145.92442 10418 ft 314 kts 150°
2026-04-27 11:07 -16.89801 145.93442 10785 ft 339 kts 153°
2026-04-27 11:08 -16.91892 145.94615 11872 ft 341 kts 151°
2026-04-27 11:08 -16.93910 145.95801 12761 ft 346 kts 150°
2026-04-27 11:08 -16.96009 145.97040 13661 ft 351 kts 150°
2026-04-27 11:08 -16.98125 145.98288 14529 ft 356 kts 150°
2026-04-27 11:09 -17.00273 145.99556 15376 ft 360 kts 150°
2026-04-27 11:09 -17.02471 146.00854 16190 ft 365 kts 150°
2026-04-27 11:09 -17.04679 146.02159 16991 ft 370 kts 150°
2026-04-27 11:09 -17.06937 146.03493 17758 ft 371 kts 150°
2026-04-27 11:10 -17.09172 146.04814 17968 ft 375 kts 150°
2026-04-27 11:10 -17.11304 146.06074 18132 ft 381 kts 150°
2026-04-27 11:10 -17.13688 146.07484 19090 ft 380 kts 150°
2026-04-27 11:10 -17.15968 146.08833 19744 ft 385 kts 150°
2026-04-27 11:11 -17.18356 146.10246 20448 ft 389 kts 150°
2026-04-27 11:11 -17.20708 146.11638 21113 ft 393 kts 150°
2026-04-27 11:11 -17.23110 146.13062 21764 ft 397 kts 150°
2026-04-27 11:11 -17.25413 146.14424 22365 ft 401 kts 150°
2026-04-27 11:12 -17.27793 146.15836 22965 ft 404 kts 150°
2026-04-27 11:12 -17.30262 146.17299 23561 ft 408 kts 150°
2026-04-27 11:12 -17.32763 146.18780 24144 ft 412 kts 150°
2026-04-27 11:12 -17.35274 146.20270 24709 ft 415 kts 150°
2026-04-27 11:13 -17.37789 146.21761 25255 ft 419 kts 150°
2026-04-27 11:13 -17.40323 146.23265 25788 ft 422 kts 150°
2026-04-27 11:13 -17.42904 146.24797 26310 ft 426 kts 150°
2026-04-27 11:13 -17.44836 146.25944 26693 ft 428 kts 150°
2026-04-27 11:14 -17.47647 146.27614 27226 ft 432 kts 150°
2026-04-27 11:14 -17.50569 146.29350 27780 ft 435 kts 150°
2026-04-27 11:14 -17.53204 146.30916 28240 ft 438 kts 150°
2026-04-27 11:14 -17.55866 146.32498 28786 ft 439 kts 150°
2026-04-27 11:15 -17.58525 146.34080 29388 ft 438 kts 150°
2026-04-27 11:15 -17.61132 146.35631 29965 ft 437 kts 150°
2026-04-27 11:15 -17.63764 146.37198 30530 ft 436 kts 150°
2026-04-27 11:15 -17.66391 146.38762 31072 ft 435 kts 150°
2026-04-27 11:16 -17.69036 146.40335 31605 ft 434 kts 150°
2026-04-27 11:16 -17.71673 146.41908 32116 ft 433 kts 150°
2026-04-27 11:16 -17.74281 146.43462 32606 ft 432 kts 150°
2026-04-27 11:16 -17.76894 146.45020 33082 ft 431 kts 150°
2026-04-27 11:17 -17.79484 146.46564 33538 ft 430 kts 150°
2026-04-27 11:17 -17.82068 146.48106 33979 ft 429 kts 150°
2026-04-27 11:17 -17.84650 146.49646 34405 ft 428 kts 150°
2026-04-27 11:17 -17.87237 146.51192 34823 ft 427 kts 150°
2026-04-27 11:18 -17.89828 146.52739 35218 ft 427 kts 150°
2026-04-27 11:18 -17.92398 146.54274 35603 ft 426 kts 150°
2026-04-27 11:18 -17.94836 146.55731 35956 ft 425 kts 150°
2026-04-27 11:18 -17.97417 146.57274 36311 ft 425 kts 150°
2026-04-27 11:19 -18.00005 146.58821 36632 ft 425 kts 150°
2026-04-27 11:19 -18.02544 146.60339 36924 ft 423 kts 150°
2026-04-27 11:19 -18.07684 146.63415 37006 ft 436 kts 150°
2026-04-27 11:20 -18.13033 146.66620 37011 ft 452 kts 150°
2026-04-27 11:20 -18.18580 146.69945 37002 ft 461 kts 150°
2026-04-27 11:21 -18.24133 146.73274 36998 ft 458 kts 150°
2026-04-27 11:21 -18.29663 146.76594 37000 ft 458 kts 150°
2026-04-27 11:22 -18.35204 146.79918 36999 ft 458 kts 150°
2026-04-27 11:22 -18.40766 146.83183 36999 ft 458 kts 151°
2026-04-27 11:23 -18.46328 146.86446 37000 ft 458 kts 151°
2026-04-27 11:23 -18.51907 146.89720 37000 ft 458 kts 151°
2026-04-27 11:24 -18.57483 146.92995 37000 ft 458 kts 151°
2026-04-27 11:24 -18.63064 146.96275 36993 ft 459 kts 151°
2026-04-27 11:25 -18.65835 146.97903 36865 ft 460 kts 151°
2026-04-27 11:25 -18.68702 146.99480 34677 ft 500 kts 158°
2026-04-27 11:25 -18.72133 147.00386 31161 ft 543 kts 173°
2026-04-27 11:25 -18.75802 147.00326 27642 ft 558 kts 187°
2026-04-27 11:26 -18.79429 146.99074 25246 ft 547 kts 205°
2026-04-27 11:26 -18.82460 146.96845 23830 ft 538 kts 223°
2026-04-27 11:26 -18.84789 146.93852 22760 ft 523 kts 239°